Location: De Greiden
(52.9496°N, 5.9137°E)
Time: 01:51:14
(UTC+00:00)

Cosmos 909 Rocket - Pass Details

Date: 24 January 2021
Orbit: 991 x 2088 km, 65.9° (Epoch: 26 February)

Event Time Altitude Azimuth Distance (km) Brightness Sun altitude
Rises 19:22:52 0° 315° (NW) 3,716 7.8 -29.2°
Reaches altitude 10° 19:25:26 10° 320° (NW) 2,775 6.9 -29.6°
Enters shadow 19:30:54 52° 13° (NNE) 1,282 4.5 -30.4°
